DW0479 Weather Reports


Display with metric or nautical units.
time (UTC)temp
F
wind
direction
speed
MPH
gust
MPH
rain 1hr
in
rain 24hr
in
rain mn
in
humidity
%
barometer
mb
20260505152602 83 154 5.0 14.0 0.00 0.00 0.00 54 1016.3
20260505152043 82 105 5.0 12.0 0.00 0.00 0.00 59 1016.4
20260505151047 82 120 7.0 14.0 0.00 0.00 0.00 57 1016.4
20260505140549 79 94 6.0 12.0 0.00 0.00 0.00 67 1015.9
20260505125010 73 124 4.0 8.0 0.00 0.00 0.00 79 1016.0
20260505124022 73 96 2.0 7.0 0.00 0.00 0.00 80 1016.1
20260505122538 72 96 2.0 6.0 0.00 0.00 0.00 84 1016.1
20260505122014 70 95 1.0 5.0 0.00 0.00 0.00 88 1016.1
20260505120534 69 35 1.0 4.0 0.00 0.00 0.00 91 1016.0
20260505115533 67 287 0.0 2.0 0.00 0.00 0.00 93 1015.8
20260505114530 65 287 0.0 0.0 0.00 0.00 0.00 93 1015.9
20260505113532 64 286 0.0 0.0 0.00 0.00 0.00 94 1015.6
20260505112528 64 286 0.0 0.0 0.00 0.00 0.00 94 1015.5
20260505111527 63 286 0.0 0.0 0.00 0.00 0.00 94 1015.2
20260505110530 63 48 0.0 1.0 0.00 0.00 0.00 93 1015.3
20260505101514 62 48 0.0 0.0 0.00 0.00 0.00 93 1014.9
20260505100512 62 48 0.0 0.0 0.00 0.00 0.00 93 1014.7
20260505095510 62 48 0.0 0.0 0.00 0.00 0.00 93 1014.6
20260505094943 62 48 0.0 0.0 0.00 0.00 0.00 93 1014.5
20260505093511 62 48 0.0 0.0 0.00 0.00 0.00 93 1014.4
20260505092510 62 48 0.0 0.0 0.00 0.00 0.00 93 1014.4
20260505091945 63 48 0.0 0.0 0.00 0.00 0.00 93 1014.6
20260505090515 63 48 0.0 2.0 0.00 0.00 0.00 93 1014.3
20260505085501 64 48 0.0 1.0 0.00 0.00 0.00 93 1014.3
20260505084500 64 48 0.0 1.0 0.00 0.00 0.00 93 1014.3
20260505083501 63 48 0.0 1.0 0.00 0.00 0.00 92 1014.3
20260505082502 63 48 0.0 1.0 0.00 0.00 0.00 92 1014.3
20260505081501 63 48 0.0 0.0 0.00 0.00 0.00 92 1014.3
20260505080926 63 48 0.0 0.0 0.00 0.00 0.00 92 1014.3
20260505075451 63 48 0.0 0.0 0.00 0.00 0.00 91 1014.4
20260505074941 63 48 0.0 0.0 0.00 0.00 0.00 91 1014.3
20260505073450 64 48 0.0 1.0 0.00 0.00 0.00 91 1014.5
20260505072452 64 48 0.0 3.0 0.00 0.00 0.00 91 1014.6
20260505071451 63 48 1.0 3.0 0.00 0.00 0.00 91 1014.4
20260505070448 63 48 0.0 2.0 0.00 0.00 0.00 90 1014.6
20260505065449 64 48 0.0 0.0 0.00 0.00 0.00 90 1014.6
20260505064448 64 48 0.0 0.0 0.00 0.00 0.00 89 1014.9
20260505063939 65 48 0.0 1.0 0.00 0.00 0.00 88 1014.9
20260505062921 65 48 0.0 2.0 0.00 0.00 0.00 88 1015.0
20260505061450 65 48 1.0 2.0 0.00 0.00 0.00 87 1015.1
20260505060446 66 48 0.0 2.0 0.00 0.00 0.00 86 1015.3
20260505055447 66 48 1.0 2.0 0.00 0.00 0.00 86 1015.4
20260505054447 66 48 0.0 2.0 0.00 0.00 0.00 86 1015.5
20260505053448 66 48 0.0 2.0 0.00 0.00 0.00 85 1015.6
20260505052446 67 48 0.0 2.0 0.00 0.00 0.00 85 1015.8
20260505051434 67 48 0.0 0.0 0.00 0.00 0.00 84 1015.9
20260505050434 67 48 0.0 2.0 0.00 0.00 0.00 85 1016.1
20260505041433 68 10 2.0 4.0 0.00 0.00 0.00 83 1016.1
20260505040433 67 82 1.0 3.0 0.00 0.00 0.00 84 1016.0
20260505035430 67 82 1.0 3.0 0.00 0.00 0.00 83 1016.2
20260505034431 67 82 1.0 2.0 0.00 0.00 0.00 83 1016.1
20260505033432 67 82 1.0 2.0 0.00 0.00 0.00 82 1016.3
20260505032903 68 82 1.0 3.0 0.00 0.00 0.00 82 1016.2
20260505031427 68 82 1.0 3.0 0.00 0.00 0.00 81 1016.2
20260505030428 68 82 1.0 4.0 0.00 0.00 0.00 81 1016.2
20260505025428 69 80 1.0 3.0 0.00 0.00 0.00 80 1016.2
20260505024427 69 81 1.0 4.0 0.00 0.00 0.00 79 1016.2
20260505023427 70 81 2.0 5.0 0.00 0.00 0.00 78 1016.1
20260505022420 70 94 2.0 4.0 0.00 0.00 0.00 78 1016.2
20260505021902 71 81 3.0 8.0 0.00 0.00 0.00 76 1016.0
20260505020419 71 100 3.0 9.0 0.00 0.00 0.00 76 1016.1
20260505015408 71 87 3.0 5.0 0.00 0.00 0.00 76 1016.0
20260505014402 71 67 2.0 4.0 0.00 0.00 0.00 75 1016.0
20260505013400 71 108 3.0 8.0 0.00 0.00 0.00 74 1015.8
20260505012350 71 85 2.0 5.0 0.00 0.00 0.00 73 1015.7
20260505011355 72 104 2.0 6.0 0.00 0.00 0.00 73 1015.5
20260505010344 72 89 3.0 9.0 0.00 0.00 0.00 72 1015.6
20260505005341 73 102 4.0 8.0 0.00 0.00 0.00 70 1015.6
20260505004338 73 75 3.0 8.0 0.00 0.00 0.00 69 1015.6
20260505003341 73 88 3.0 9.0 0.00 0.00 0.00 69 1015.4
20260505002334 74 113 4.0 10.0 0.00 0.00 0.00 68 1015.1
20260505001335 74 116 5.0 10.0 0.00 0.00 0.00 67 1015.0
20260505000815 75 109 6.0 13.0 0.00 0.00 0.00 66 1015.1
20260504235829 75 42 5.0 11.0 0.00 0.00 0.00 65 1015.0
20260504234322 76 98 4.0 13.0 0.00 0.00 0.00 64 1014.7
20260504233319 76 93 6.0 13.0 0.00 0.00 0.00 64 1014.5
20260504232321 77 106 6.0 11.0 0.00 0.00 0.00 63 1014.6
20260504231759 77 125 6.0 13.0 0.00 0.00 0.00 62 1014.5
20260504231237 78 90 4.0 13.0 0.00 0.00 0.00 61 1014.5
20260504225322 78 96 6.0 16.0 0.00 0.00 0.00 61 1014.5
20260504224322 78 120 7.0 17.0 0.00 0.00 0.00 61 1014.6
20260504223317 78 106 6.0 15.0 0.00 0.00 0.00 61 1014.7
20260504222318 78 113 7.0 15.0 0.00 0.00 0.00 60 1014.6
20260504221317 80 94 8.0 17.0 0.00 0.00 0.00 58 1014.5
20260504220317 79 121 8.0 17.0 0.00 0.00 0.00 59 1014.4
20260504215319 80 89 7.0 16.0 0.00 0.00 0.00 57 1014.5
20260504214316 80 121 7.0 17.0 0.00 0.00 0.00 56 1014.4
20260504213316 80 64 7.0 15.0 0.00 0.00 0.00 59 1014.4
20260504212316 81 112 8.0 16.0 0.00 0.00 0.00 57 1014.3
20260504211315 82 102 8.0 16.0 0.00 0.00 0.00 55 1014.4
20260504210315 81 99 7.0 15.0 0.00 0.00 0.00 56 1014.4
20260504205313 81 129 7.0 14.0 0.00 0.00 0.00 57 1014.4
20260504204314 81 115 8.0 16.0 0.00 0.00 0.00 56 1014.5
20260504203316 82 95 8.0 15.0 0.00 0.00 0.00 54 1014.5
20260504202300 81 89 7.0 16.0 0.00 0.00 0.00 56 1014.6
20260504201740 82 116 8.0 15.0 0.00 0.00 0.00 54 1014.7
20260504200257 83 92 8.0 16.0 0.00 0.00 0.00 54 1014.7
20260504195258 83 103 8.0 18.0 0.00 0.00 0.00 54 1014.9
20260504194257 81 94 7.0 18.0 0.00 0.00 0.00 56 1015.0
20260504193258 81 89 7.0 17.0 0.00 0.00 0.00 55 1015.0
20260504192258 81 118 7.0 18.0 0.00 0.00 0.00 55 1015.1
20260504191259 81 108 9.0 17.0 0.00 0.00 0.00 55 1015.2
20260504190258 83 102 7.0 16.0 0.00 0.00 0.00 53 1015.3
20260504185258 83 109 6.0 12.0 0.00 0.00 0.00 53 1015.4
20260504184258 84 127 6.0 16.0 0.00 0.00 0.00 52 1015.7
20260504183257 84 84 6.0 14.0 0.00 0.00 0.00 52 1015.6
20260504182259 81 123 7.0 16.0 0.00 0.00 0.00 56 1015.9
20260504181258 82 116 6.0 16.0 0.00 0.00 0.00 54 1015.9
20260504180731 82 138 6.0 14.0 0.00 0.00 0.00 54 1016.1
20260504175259 83 64 6.0 17.0 0.00 0.00 0.00 53 1016.2
20260504174734 81 101 5.0 12.0 0.00 0.00 0.00 54 1016.2
20260504173249 81 50 5.0 13.0 0.00 0.00 0.00 55 1016.2
20260504172244 82 107 6.0 13.0 0.00 0.00 0.00 53 1016.3
20260504171233 84 46 7.0 16.0 0.00 0.00 0.00 51 1016.5
20260504170231 84 129 7.0 14.0 0.00 0.00 0.00 49 1016.6
20260504160215 82 123 7.0 13.0 0.00 0.00 0.00 54 1017.1